Location: Unspecified
(0.0000°N, 0.0000°E)
Time: 21:53:55
(UTC+00:00)

Explorer 11/Cluster Stage 4 - All Passes

Search period start: 31 May 2016 00:00
Search period end: 10 June 2016 00:00
Orbit: 467 x 1266 km, 28.8° (Epoch: 31 May)

Date Brightness Start Highest point End Pass type
(mag) Time Alt. Az. Time Alt. Az. Time Alt. Az.
31 May - 01:44:03 10° WNW 01:49:17 24° NNW 01:55:14 10° NNE visible
31 May - 09:09:19 10° NNW 09:14:30 20° NNE 09:19:07 10° ENE daylight
31 May - 10:57:27 10° NW 11:04:12 62° NNE 11:09:34 10° ESE daylight
31 May - 12:47:56 10° W 12:52:49 28° SSW 12:56:54 10° SSE daylight
31 May - 21:57:31 10° SSW 22:01:30 27° SSE 22:06:16 10° E night (unlit)
31 May - 23:44:48 10° WSW 23:50:06 62° NNW 23:56:47 10° NE night (unlit)
01 Jun - 01:35:11 10° WNW 01:39:45 20° NNW 01:44:55 10° NNE visible
01 Jun - 08:59:00 10° NNW 09:04:59 24° NNE 09:10:15 10° ENE daylight
01 Jun - 10:47:31 10° NW 10:54:36 77° NNE 11:00:13 10° ESE daylight
01 Jun - 12:38:32 10° W 12:43:14 24° SSW 12:47:12 10° SSE daylight
01 Jun - 21:47:53 10° SSW 21:51:55 33° SSE 21:56:49 10° E night (unlit)
01 Jun - 23:35:32 10° WSW 23:40:32 49° NNW 23:46:48 10° NE night (unlit)
02 Jun - 01:26:31 10° WNW 01:30:17 16° NNW 01:34:28 10° NNE visible
02 Jun - 07:02:28 10° N 07:04:50 11° NNE 07:07:09 10° NE daylight
02 Jun - 08:48:46 10° NNW 08:55:25 29° NNE 09:01:14 10° E daylight
02 Jun - 10:37:38 10° WNW 10:44:57 88° SSW 10:50:47 10° ESE daylight
02 Jun - 12:29:14 10° W 12:33:38 20° SSW 12:37:25 10° SSE daylight
02 Jun - 21:38:17 10° SW 21:42:21 41° SSE 21:47:18 10° ENE night (unlit)
02 Jun - 23:26:22 10° W 23:31:01 38° NNW 23:36:46 10° NE night (unlit)
03 Jun - 01:18:10 10° NW 01:20:51 13° NNW 01:23:44 10° N visible
03 Jun - 06:51:40 10° N 06:55:22 13° NNE 06:58:57 10° NE daylight
03 Jun - 08:38:37 10° NW 08:45:48 35° NNE 08:52:05 10° E daylight
03 Jun - 10:27:48 10° WNW 10:35:16 73° SSW 10:41:18 10° SE daylight
03 Jun - 12:20:01 10° WSW 12:24:02 17° SSW 12:27:35 10° S daylight
03 Jun - 21:28:46 10° SW 21:32:48 53° SSE 21:37:44 10° ENE night (unlit)
03 Jun - 23:17:17 10° W 23:21:31 29° NNW 23:26:40 10° NE night (unlit)
04 Jun - 06:41:12 10° NNW 06:45:50 16° NNE 06:50:22 10° NE daylight
04 Jun - 08:28:32 10° NW 08:36:08 42° NNE 08:42:50 10° E daylight
04 Jun - 10:18:01 10° WNW 10:25:33 61° SSW 10:31:44 10° SE daylight
04 Jun - 12:10:54 10° WSW 12:14:26 15° SSW 12:17:38 10° S daylight
04 Jun - 21:19:17 10° SW 21:23:17 70° SSE 21:28:07 10° ENE night (unlit)
04 Jun - 23:08:20 10° WNW 23:12:05 23° NNW 23:16:28 10° NNE night (unlit)
05 Jun - 06:30:54 10° NNW 06:36:16 19° NNE 06:41:32 10° ENE daylight
05 Jun - 08:18:30 10° NW 08:26:26 51° NNE 08:33:28 10° ESE daylight
05 Jun - 10:08:18 10° WNW 10:15:49 51° SSW 10:22:06 10° SE daylight
05 Jun - 12:01:59 10° WSW 12:04:52 13° SSW 12:07:32 10° S daylight
05 Jun - 19:24:01 10° S 19:25:34 12° SSE 19:27:09 10° SE visible
05 Jun - 21:09:53 10° WSW 21:13:46 86° NNW 21:18:26 10° ENE night (unlit)
05 Jun - 22:59:34 10° WNW 23:02:39 17° NNW 23:06:10 10° NNE night (unlit)
06 Jun - 06:20:42 10° NNW 06:26:40 22° NNE 06:32:33 10° ENE daylight
06 Jun - 08:08:31 10° NW 08:16:41 60° NNE 08:24:02 10° ESE daylight
06 Jun - 09:58:39 10° WNW 10:06:04 44° SSW 10:12:26 10° SE daylight
06 Jun - 11:53:20 10° SW 11:55:19 11° SSW 11:57:12 10° S daylight
06 Jun - 19:13:49 10° S 19:16:06 16° SSE 19:18:27 10° ESE visible
06 Jun - 21:00:32 10° WSW 21:04:18 62° NNW 21:08:42 10° NE night (unlit)
06 Jun - 22:51:08 10° NW 22:53:16 13° NNW 22:55:34 10° N night (unlit)
07 Jun - 06:10:35 10° NNW 06:17:00 25° NNE 06:23:26 10° ENE daylight
07 Jun - 07:58:36 10° NW 08:06:54 71° NNE 08:14:31 10° ESE daylight
07 Jun - 09:49:03 10° W 09:56:20 37° SSW 10:02:41 10° SE daylight
07 Jun - 19:03:51 10° SSW 19:06:38 20° SSE 19:09:29 10° E visible
07 Jun - 20:51:16 10° WSW 20:54:51 44° NNW 20:58:55 10° NE night (unlit)
08 Jun - 06:00:32 10° NNW 06:07:18 29° NNE 06:14:12 10° E daylight
08 Jun - 07:48:45 10° WNW 07:57:06 83° NNE 08:04:55 10° ESE daylight
08 Jun - 09:39:33 10° W 09:46:35 32° SSW 09:52:52 10° SSE daylight
08 Jun - 18:54:01 10° SSW 18:57:10 27° SSE 19:00:21 10° E visible
08 Jun - 20:42:05 10° W 20:45:24 31° NNW 20:49:05 10° NE visible
09 Jun - 04:05:31 10° N 04:07:24 11° NNE 04:09:20 10° NE visible
09 Jun - 05:50:33 10° NNW 05:57:35 34° NNE 06:04:50 10° E daylight
09 Jun - 07:38:58 10° WNW 07:47:17 85° SSW 07:55:15 10° ESE daylight
09 Jun - 09:30:07 10° W 09:36:52 28° SSW 09:43:00 10° SSE daylight
09 Jun - 18:44:16 10° SW 18:47:43 37° SSE 18:51:07 10° E visible
09 Jun - 20:33:01 10° W 20:35:59 23° NNW 20:39:09 10° NNE visible
